Wind_Speed
24 24 21 21 22 22 20 18 16 16 17 15 11 9 9 9 9 9 10 9 7 5 4 3 3 3 4 4 5 5 5 5 5 5 4 4 4 3 3 2 2 1 1 1 2 2 2 3 3 3 3 4 4 4 5 5 5 5 5 5 6 7 7 6 6 5 4 4 3 4 5 5 5 5 4 4 5 6 7 8 8 9 10 11 12
23 25 22 20 21 23 22 19 18 18 18 16 13 10 10 9 9 11 12 12 10 9 8 8 7 7 7 6 6 6 7 7 7 7 6 5 5 4 4 3 3 3 3 2 2 1 1 0 0 1 1 1 1 2 3 3 2 2 2 2 2 2 3 3 3 3 4 4 5 6 7 7 8 8 8 8 8 8 9 9 9 9 10 11 12
20 24 23 21 22 24 23 20 20 20 18 16 14 13 13 12 11 12 13 13 13 13 13 11 10 10 9 8 8 7 8 9 9 7 6 6 6 6 5 4 3 3 3 4 4 4 3 2 2 2 2 2 1 2 2 2 2 2 2 2 3 3 3 3 3 4 6 7 7 9 10 10 11 11 11 11 11 11 12 11 11 11 11 11 12
18 21 22 22 23 24 23 21 22 21 19 17 17 17 16 15 13 13 14 14 15 16 16 14 13 14 13 13 13 12 11 11 11 10 9 9 9 8 8 8 7 6 5 5 5 5 5 5 4 4 4 3 3 3 3 3 4 4 4 5 5 5 5 6 7 9 10 11 12 12 13 14 14 14 14 14 14 14 14 14 13 13 13 13 13
17 18 19 20 22 23 22 21 22 21 19 18 19 19 18 17 16 16 17 16 16 16 16 15 15 16 16 16 16 16 15 15 16 16 14 12 10 9 10 12 12 11 10 9 8 8 7 6 6 6 5 5 5 4 4 4 5 6 7 7 6 7 9 11 13 14 15 15 15 15 16 16 16 17 17 16 16 16 15 15 15 15 14 14 14
14 15 15 16 19 20 19 19 20 20 18 18 19 20 19 17 16 17 19 20 19 19 19 18 17 18 18 18 17 18 19 19 19 19 18 16 14 12 10 11 13 14 14 14 13 12 11 10 9 8 7 6 6 6 6 6 7 8 10 10 10 10 12 15 16 16 15 15 15 17 17 17 17 17 18 18 19 19 18 17 16 16 16 16 16
10 13 14 14 16 16 14 14 15 16 18 19 19 19 19 18 16 16 18 20 20 20 21 21 21 21 21 19 19 21 22 21 20 18 17 17 16 14 12 12 13 14 14 15 14 12 11 11 11 11 10 8 7 8 8 8 8 9 10 11 12 12 13 15 16 15 14 15 16 17 18 18 19 19 20 20 20 20 21 21 20 19 18 18 19
8 11 13 14 14 14 13 12 12 14 16 16 17 18 18 17 17 17 17 19 20 20 20 21 22 22 21 20 20 21 23 22 19 17 16 16 16 15 14 14 15 15 15 15 14 13 12 14 14 14 14 13 11 11 11 11 10 10 9 10 12 13 13 15 14 11 11 14 15 16 17 19 21 22 23 23 22 22 22 23 23 23 22 21 22
7 8 10 13 14 14 14 13 13 14 13 12 13 16 16 16 19 20 20 21 22 21 20 19 20 21 20 19 19 20 21 20 17 15 15 16 16 16 15 16 16 16 15 16 16 17 17 17 16 16 16 16 15 15 14 14 13 13 12 12 13 13 14 14 13 11 12 13 14 15 16 18 22 24 24 24 24 24 24 24 25 26 26 24 24
8 7 8 10 12 13 13 13 14 14 14 13 13 14 15 15 16 16 14 12 13 13 13 13 13 13 13 13 14 14 13 11 11 11 13 14 15 15 16 17 17 17 17 18 18 18 18 17 16 16 16 17 18 19 18 17 17 16 16 16 17 16 14 14 14 13 14 15 16 17 18 20 23 25 25 25 25 25 26 26 27 28 29 28 27
8 7 7 7 9 10 11 11 12 13 12 11 10 10 10 10 8 6 5 4 4 4 5 5 4 4 5 6 6 6 5 5 6 7 8 9 11 12 14 15 15 16 17 17 17 17 17 16 16 16 16 17 19 20 20 20 20 19 19 20 20 19 18 17 17 16 16 17 18 19 20 22 24 25 25 25 25 26 27 28 29 30 31 32 32
7 8 7 7 7 7 8 8 9 9 9 8 8 8 8 7 6 5 4 3 3 3 2 3 3 3 4 5 5 6 6 7 7 8 8 9 9 10 10 10 10 11 12 13 13 14 14 14 14 15 15 16 18 19 20 21 21 22 23 23 23 22 22 21 20 18 17 17 18 20 21 22 24 25 25 26 26 28 29 30 31 32 33 34 35
7 7 8 8 8 8 8 8 8 8 8 8 8 8 7 6 5 4 4 3 2 2 2 2 3 5 6 6 7 8 8 9 10 10 10 10 11 10 10 9 9 9 9 10 11 12 12 13 13 13 14 15 17 18 19 19 21 24 26 25 24 23 23 22 21 19 18 18 19 20 21 22 24 25 26 27 28 29 31 32 32 34 35 35 36
5 5 6 6 7 7 7 7 7 6 6 6 6 5 5 4 4 3 3 3 3 4 4 5 5 6 7 7 8 9 11 11 12 13 13 13 13 13 12 11 11 10 10 10 11 11 12 13 13 13 14 15 15 17 17 17 19 23 25 25 24 24 23 23 22 21 20 20 21 21 22 23 25 27 28 28 30 31 33 34 35 36 37 37 37
6 6 6 6 6 6 7 7 7 7 7 7 6 6 5 5 5 5 6 5 5 5 5 5 5 5 6 6 8 9 10 11 12 13 13 14 14 14 14 14 14 14 13 12 12 12 12 12 13 13 14 14 14 15 15 15 18 21 24 25 24 24 23 23 22 21 21 22 22 22 24 25 27 28 30 31 32 33 34 35 35 36 38 38 37
7 7 6 6 6 6 6 6 7 8 8 8 8 7 7 7 7 7 7 7 6 6 5 5 4 4 5 6 7 9 10 11 12 12 13 13 14 14 15 15 16 16 15 14 13 13 12 13 13 13 13 13 13 13 13 13 17 20 22 23 24 24 24 22 21 21 21 22 23 24 26 28 29 30 32 33 34 35 35 35 35 35 36 37 37
6 6 5 5 4 4 4 5 6 8 9 9 9 9 8 8 7 7 7 7 6 5 5 5 6 7 8 8 9 10 11 12 13 13 14 14 14 14 13 14 15 15 15 15 14 13 13 13 12 11 11 11 11 11 11 13 16 20 21 22 23 23 23 21 21 22 22 23 25 26 28 30 31 33 34 35 35 35 35 35 34 34 35 36 37
7 7 6 5 5 5 6 6 7 8 9 9 10 9 9 8 7 7 6 6 6 6 7 8 9 10 10 10 12 12 13 13 13 14 14 15 15 15 14 13 13 13 14 14 14 13 12 12 11 10 9 9 10 10 11 14 17 20 21 22 22 21 21 21 22 22 24 25 27 28 30 31 33 34 34 34 33 33 33 34 33 34 35 36 36
10 10 10 11 11 11 10 11 10 9 9 10 10 10 9 9 8 8 8 8 8 8 9 9 10 11 11 12 14 14 15 15 15 14 14 15 15 15 15 14 13 12 13 13 12 12 11 11 11 10 10 10 10 11 13 16 18 20 21 21 20 20 20 21 22 23 25 27 28 30 31 32 34 34 33 32 31 31 32 32 32 33 34 34 33
11 12 12 12 13 13 13 13 13 12 12 12 12 12 12 11 11 11 11 11 10 10 10 10 11 12 13 15 15 16 17 17 16 16 16 16 16 16 15 14 13 12 12 11 11 10 11 11 11 11 11 11 12 13 15 18 19 20 19 19 19 20 21 23 24 26 27 29 30 31 32 33 33 33 32 32 31 31 31 31 31 31 31 31 30
14 15 16 16 16 15 15 15 15 16 16 16 15 15 15 14 13 13 13 13 12 12 13 13 14 15 15 16 16 16 16 16 15 15 16 16 17 17 16 15 13 11 10 9 9 10 10 11 12 12 13 13 15 16 17 18 18 18 18 18 20 22 24 26 27 28 29 30 31 32 33 33 33 32 32 32 32 32 32 31 30 29 28 29 29
15 16 18 20 20 19 19 19 19 18 18 18 17 16 16 15 15 15 15 15 15 15 16 16 16 16 16 15 14 14 13 14 15 15 16 16 17 17 17 16 14 10 8 8 9 10 11 12 12 14 14 15 15 16 16 17 18 18 19 21 23 24 25 27 28 29 30 31 32 33 33 33 33 33 33 32 31 30 30 29 27 27 26 27 28
16 16 18 21 22 21 20 20 19 18 17 17 16 16 16 16 16 16 16 16 16 16 16 16 16 16 15 15 15 15 15 15 17 18 17 17 16 16 16 16 15 11 8 8 9 9 10 11 12 13 14 15 15 16 17 19 20 21 22 23 24 25 26 27 28 30 31 32 33 33 33 33 33 33 31 30 29 28 28 27 26 26 27 27 28
18 18 19 20 22 21 21 21 20 19 18 17 17 17 17 17 17 17 17 17 17 16 15 16 16 16 16 17 17 18 18 19 20 21 20 17 16 15 15 15 13 10 9 9 10 10 11 11 12 14 15 16 18 19 20 22 22 23 23 24 25 26 27 28 29 30 31 32 32 32 31 31 30 30 30 29 29 29 29 29 29 29 29 30 30
21 20 20 20 22 23 23 23 23 22 21 21 20 19 19 18 18 18 18 18 17 16 16 17 18 18 19 20 21 21 22 23 23 23 21 18 16 15 14 14 13 11 11 11 11 11 11 12 14 15 16 17 18 20 21 21 22 22 23 24 24 25 26 28 28 29 30 29 29 29 29 29 29 30 30 31 31 31 31 31 31 31 30 31 31
21 21 21 20 21 23 24 25 25 24 23 22 22 21 21 20 20 20 19 19 18 18 19 19 20 21 23 23 23 24 24 23 23 22 19 17 16 15 14 14 13 13 13 12 12 12 12 12 14 15 15 16 17 18 19 19 20 21 21 22 24 25 26 26 27 27 27 28 28 29 29 30 30 31 31 32 32 31 31 31 31 30 29 29 30
18 19 19 19 20 22 23 23 23 22 22 21 21 21 21 21 21 22 21 21 21 21 22 22 23 24 24 24 23 22 21 20 19 18 16 16 15 14 13 14 14 14 13 13 12 12 12 12 13 14 15 15 16 17 17 18 18 20 21 22 22 23 23 24 25 25 27 28 29 29 30 30 31 30 31 31 30 29 28 29 29 29 28 28 28
17 17 17 17 18 19 20 20 20 20 20 20 20 21 21 21 22 22 22 22 22 23 23 24 24 24 23 21 20 20 19 19 18 16 15 15 15 14 13 13 13 14 13 13 13 12 12 13 14 14 14 15 15 16 16 17 18 19 20 20 20 21 21 22 23 24 25 26 27 28 28 29 29 29 29 29 28 27 27 27 27 27 26 25 26
20 19 18 17 17 17 18 19 19 20 21 21 21 21 21 22 22 23 23 23 23 24 24 24 23 22 20 19 19 19 20 19 18 16 15 14 14 14 14 14 14 14 14 13 12 12 13 13 13 13 13 14 14 15 16 16 17 17 18 18 19 20 21 22 22 23 23 24 25 26 27 28 28 28 28 28 28 26 26 25 25 25 24 24 25
24 23 22 20 19 18 18 19 20 21 21 22 23 23 23 24 25 25 25 25 25 25 25 24 22 21 20 20 20 21 21 20 17 16 16 15 15 15 15 16 15 13 13 12 12 12 11 11 11 12 12 13 14 14 15 15 16 16 17 18 18 19 20 21 22 23 23 24 24 25 27 27 28 27 27 27 27 26 25 25 24 24 25 25 26
25 25 24 22 21 20 19 20 21 22 23 24 24 25 26 26 27 28 29 28 27 27 27 25 24 23 23 22 22 22 22 19 17 16 16 16 15 15 16 15 13 11 11 12 11 10 9 10 10 11 12 12 13 13 14 15 15 16 17 17 17 18 19 21 22 23 23 24 24 25 26 27 26 26 25 25 26 26 26 25 25 25 25 25 26
20 20 19 20 20 20 21 22 23 24 25 26 26 27 28 29 30 31 31 31 29 29 29 28 27 26 25 25 24 22 20 18 18 19 18 16 16 16 15 13 11 11 11 11 10 9 9 9 10 10 10 11 12 13 14 14 15 16 17 17 17 17 19 20 22 23 23 23 24 25 25 25 24 24 24 24 25 25 25 25 25 25 25 25 25
16 15 16 18 20 21 22 24 24 26 26 27 28 29 30 31 32 32 31 31 31 31 31 30 29 27 26 24 22 20 19 19 20 20 19 17 16 15 14 12 11 10 10 9 9 8 8 8 8 9 10 10 11 12 13 15 16 16 16 16 17 18 18 19 20 21 22 23 23 24 24 24 23 23 23 23 23 24 25 25 25 25 25 25 25
15 15 16 18 19 20 22 23 24 26 27 28 30 30 31 32 32 31 31 31 30 30 30 29 27 24 22 21 20 20 20 19 18 19 18 17 15 14 12 11 10 9 8 8 8 7 6 6 7 8 9 9 10 12 14 15 16 16 16 16 16 17 16 17 19 21 22 23 24 24 24 24 23 23 23 23 23 24 25 25 25 25 25 25 25
15 14 14 16 17 19 20 22 24 25 27 28 29 30 30 30 30 30 30 29 28 28 27 24 21 19 19 20 20 20 19 18 17 18 19 17 15 14 12 11 9 8 7 6 5 4 4 5 6 7 7 9 10 13 14 15 15 16 16 16 16 16 16 17 19 20 23 24 24 24 24 23 23 22 22 22 23 23 24 24 24 23 24 24 24
13 12 13 15 16 18 20 22 23 25 26 26 27 28 29 29 29 28 26 24 24 23 19 16 15 17 19 19 18 18 17 17 18 19 18 16 14 12 10 9 8 6 5 4 3 3 3 4 5 6 7 9 11 12 13 14 15 16 16 17 17 17 18 19 19 21 23 25 25 24 23 23 23 22 22 23 23 23 23 22 22 23 23 23 23
11 11 12 15 16 18 20 21 22 23 23 24 25 26 27 27 25 22 20 19 18 14 12 12 16 19 19 18 17 17 17 18 19 19 16 14 12 10 8 6 5 4 4 3 3 3 3 3 4 5 7 9 11 12 13 14 15 16 17 18 18 18 19 19 19 20 22 24 24 24 23 23 23 22 22 23 23 23 22 22 22 22 22 22 22
9 10 13 15 17 18 18 18 19 20 21 21 22 23 24 22 19 15 14 14 13 12 12 14 16 17 18 19 20 20 20 21 20 18 16 14 12 10 7 5 3 3 4 4 3 2 2 2 3 5 7 9 11 12 12 14 15 17 19 20 20 19 18 17 17 18 21 23 24 24 23 23 23 23 22 22 22 22 21 21 22 22 22 21 21
8 11 14 15 14 13 12 12 14 15 16 17 17 17 17 16 15 13 13 13 14 15 16 17 17 17 19 22 24 23 21 20 19 17 16 14 12 9 6 4 3 3 4 3 2 2 2 2 4 6 7 9 10 11 12 14 15 18 20 21 21 21 19 19 19 19 21 23 24 25 24 23 23 22 22 21 21 21 21 21 21 21 21 22 21
8 11 11 9 6 5 4 6 9 10 10 9 9 11 13 15 16 15 14 14 14 16 19 21 21 21 22 23 22 20 18 18 17 15 15 13 10 7 5 3 2 2 3 3 2 2 1 2 4 6 7 9 10 11 12 14 16 18 19 21 22 22 21 21 21 21 21 23 25 25 25 24 23 23 23 22 21 20 21 21 20 20 20 21 22
8 8 6 4 2 2 2 4 7 7 5 2 4 6 9 11 12 12 13 13 15 18 22 23 23 23 22 20 18 17 15 15 15 14 12 9 7 5 3 2 1 2 3 3 2 2 1 2 4 6 7 9 10 11 13 14 15 17 19 20 21 22 22 22 23 22 22 23 25 26 26 25 24 23 23 23 22 21 21 20 20 20 20 20 21
5 4 3 2 1 1 2 3 5 8 7 4 5 7 9 12 14 16 18 20 22 23 23 23 22 22 20 19 17 15 13 13 13 11 8 6 4 2 1 1 1 2 3 3 2 2 2 3 5 6 7 9 10 11 13 14 16 17 19 20 22 22 23 24 25 25 24 25 26 27 27 27 25 24 24 23 23 22 21 20 19 19 19 20 19
5 3 1 2 2 2 2 3 7 11 13 13 13 14 16 18 20 21 22 22 22 22 21 21 21 20 18 17 15 13 12 11 10 7 5 4 1 1 1 2 2 3 3 3 2 2 2 3 5 6 8 10 11 12 13 15 16 18 19 20 21 22 23 25 26 26 26 27 27 28 28 27 25 24 24 24 24 23 21 19 18 18 18 19 18
4 1 2 2 2 3 5 7 10 12 14 16 17 17 17 18 18 18 18 17 17 17 17 17 16 15 15 14 12 10 9 7 6 5 4 3 2 2 2 3 3 3 3 3 3 3 3 3 5 7 10 11 12 12 14 15 17 18 19 20 21 22 23 24 26 26 27 28 29 30 30 28 25 25 25 25 24 23 21 19 18 17 17 18 18
2 1 2 4 4 4 5 7 9 10 12 13 14 14 13 13 13 13 12 12 13 14 14 13 12 11 11 10 8 6 6 6 6 5 4 3 3 3 3 3 3 3 3 3 4 4 4 4 5 7 10 11 11 12 13 14 16 18 19 20 21 21 22 24 25 25 27 28 29 30 30 28 26 25 25 25 24 23 21 18 17 16 16 17 17
5 6 6 7 7 7 7 8 8 9 9 9 11 11 11 10 10 10 10 10 10 10 10 10 9 8 7 7 6 7 7 7 6 5 4 4 4 3 3 2 2 3 4 5 4 4 4 5 6 8 9 9 9 11 13 14 15 17 19 19 19 20 21 22 23 24 26 27 28 29 30 28 26 25 25 24 24 22 20 17 16 15 15 15 15
9 10 10 11 12 12 11 10 9 8 6 5 6 8 9 9 8 8 8 8 6 5 5 5 5 6 6 7 7 8 7 6 5 4 4 4 3 3 2 2 4 4 4 4 4 3 4 6 7 7 7 7 9 11 12 14 15 18 19 19 19 19 19 20 22 23 24 26 27 28 28 28 27 25 24 23 23 22 19 17 15 14 13 13 13
9 9 11 13 13 12 12 11 10 9 8 6 5 4 6 8 8 7 7 7 6 6 5 4 4 5 7 7 8 7 6 5 5 5 4 3 2 3 2 3 4 5 4 3 3 3 4 6 6 6 6 7 9 11 12 14 16 18 19 20 20 19 19 19 20 22 23 25 25 26 26 26 26 26 24 21 21 20 19 17 15 14 12 11 11
7 7 9 11 12 11 11 10 9 9 8 7 6 6 7 7 7 6 6 6 6 5 5 4 4 5 6 7 7 6 6 6 6 5 3 2 2 3 3 3 4 4 3 2 2 3 4 5 5 5 6 8 9 11 12 14 16 18 19 21 21 19 18 17 18 20 22 23 24 24 24 24 25 25 24 21 19 18 17 16 15 14 12 10 10
5 6 8 9 10 10 10 9 8 8 8 7 6 5 6 5 5 5 5 4 4 4 3 4 4 5 6 7 7 7 7 7 7 6 4 3 3 3 3 3 4 4 2 2 2 3 4 5 5 6 6 8 9 11 12 14 16 18 19 21 22 21 19 17 16 18 20 22 23 23 23 22 23 23 23 22 20 18 16 15 14 13 12 11 10
6 7 7 8 8 9 9 8 7 7 7 6 5 5 4 4 3 3 3 2 2 2 3 4 5 6 7 7 8 8 8 8 7 6 3 2 3 4 3 3 4 2 2 2 2 3 4 5 6 6 7 8 9 10 12 13 15 17 19 20 21 22 21 18 17 17 19 20 22 23 22 21 21 21 22 21 21 19 17 14 12 12 12 11 11
Wind_Direction
221 227 234 233 225 222 229 230 218 210 211 209 207 204 201 201 207 214 219 220 218 216 222 236 257 275 284 295 314 322 325 324 318 317 317 314 312 303 302 316 325 342 40 56 62 68 73 82 83 74 60 48 49 56 55 57 59 59 68 77 84 97 107 117 118 101 65 36 14 356 350 345 338 329 322 323 323 321 321 319 316 313 311 309 306
219 225 231 232 225 222 228 232 224 217 217 215 212 213 209 206 208 211 217 223 225 228 233 238 250 263 267 273 286 295 299 300 299 304 307 308 312 310 300 297 303 313 321 320 313 314 328 323 182 147 115 61 31 34 40 41 43 43 36 35 45 58 65 76 86 57 12 356 343 335 330 324 322 320 315 313 315 318 322 322 319 317 316 314 313
220 225 228 230 227 223 224 229 226 222 221 217 215 217 215 214 218 215 216 222 228 235 241 241 244 253 261 268 269 266 273 282 284 284 284 289 299 304 300 294 296 312 322 318 311 307 304 295 281 273 265 260 274 308 336 340 329 319 310 316 329 334 335 338 343 342 340 338 331 325 321 317 316 317 316 317 317 318 318 318 319 320 319 318 316
222 227 229 230 230 227 224 225 226 225 224 220 220 221 219 222 229 224 220 228 239 248 252 250 247 249 253 259 263 269 276 282 285 280 272 275 284 289 292 293 295 301 307 308 307 306 304 301 300 295 289 290 292 296 299 296 293 296 303 314 319 320 322 325 327 328 330 330 327 323 323 321 319 317 316 315 314 314 314 314 316 317 317 318 316
221 226 228 228 230 230 228 227 227 227 226 224 224 224 225 233 240 235 230 237 248 255 256 254 252 252 254 256 259 266 273 275 279 278 270 266 269 274 284 291 295 296 296 295 294 293 291 290 293 293 292 295 301 304 300 290 293 302 309 312 308 310 316 320 322 321 317 314 314 317 319 320 319 316 313 311 309 308 309 309 311 311 310 311 311
211 214 218 221 225 230 232 230 228 229 230 231 227 223 227 238 246 242 240 245 250 252 252 251 252 254 260 262 264 270 273 272 275 276 269 262 262 264 271 281 287 288 288 286 285 282 281 280 280 280 281 284 295 307 306 297 303 313 316 312 303 305 313 317 321 326 323 317 316 317 317 317 318 317 314 313 311 309 307 305 305 305 305 304 303
192 199 207 214 220 224 228 227 226 229 231 228 223 222 228 238 246 247 248 250 251 254 256 255 254 256 259 261 266 274 276 274 275 276 269 263 263 267 271 274 276 277 279 281 278 274 277 280 277 272 270 270 277 287 288 284 287 296 303 304 300 302 310 314 319 328 332 332 332 329 325 323 323 323 320 317 315 312 309 306 302 300 301 304 305
177 191 201 209 212 213 216 219 221 225 225 219 218 225 234 242 250 256 257 255 255 258 261 259 257 259 260 260 266 271 272 272 273 273 269 264 263 267 272 274 271 268 269 274 271 267 273 279 275 266 262 261 257 259 265 266 263 264 271 284 289 291 298 303 307 313 316 323 331 332 331 329 327 326 322 317 312 309 309 310 309 306 305 307 309
164 177 191 203 210 213 218 224 227 229 230 223 222 234 244 249 255 260 263 263 262 261 262 259 257 259 261 264 268 270 269 269 269 268 269 269 269 270 273 274 271 265 264 266 265 266 273 276 271 262 258 256 253 253 258 260 258 257 259 266 270 273 278 283 287 289 296 309 321 325 327 327 326 326 323 318 313 310 309 311 312 311 309 307 308
163 168 182 200 212 219 224 228 230 234 240 242 240 243 249 253 255 257 259 262 260 255 254 254 254 256 258 261 265 267 268 268 268 272 277 279 279 278 274 271 268 265 263 263 264 267 271 270 265 260 257 253 250 250 253 257 260 258 258 262 265 265 268 273 278 284 293 304 313 316 318 321 322 324 325 322 317 314 312 312 312 312 311 309 307
158 161 173 192 208 216 220 224 228 233 236 238 236 233 235 236 233 231 229 225 224 227 235 244 249 250 248 252 260 267 274 278 281 286 289 289 286 280 276 272 270 269 267 267 269 271 271 269 266 262 257 251 249 249 249 251 257 259 258 261 262 262 265 270 275 282 291 298 305 308 311 315 317 319 321 320 316 314 314 314 314 314 314 314 311
149 150 153 161 172 180 188 194 197 199 195 189 188 186 188 191 188 187 189 189 195 203 215 235 249 253 255 261 270 275 278 280 283 286 287 286 283 280 279 278 276 275 276 277 278 279 279 277 274 269 262 254 253 255 252 249 252 255 256 257 259 261 263 266 271 278 286 293 300 304 306 310 313 314 316 315 314 313 313 313 314 314 314 315 313
165 161 154 154 158 159 162 168 169 170 167 165 168 170 172 178 180 181 181 175 177 192 215 238 248 254 259 263 266 267 270 273 276 280 281 282 281 282 282 282 283 285 286 286 287 288 289 288 283 278 271 262 256 257 257 253 250 251 252 255 259 261 262 265 271 280 287 293 298 300 302 307 311 312 313 313 311 311 311 311 312 313 313 313 311
194 189 176 169 171 171 175 178 173 170 168 162 162 161 166 177 182 191 209 226 242 251 253 255 255 256 260 263 267 269 272 274 275 276 277 278 278 279 280 280 283 288 291 294 297 298 299 297 292 286 279 271 262 256 255 256 253 251 251 254 257 259 262 268 276 283 290 296 300 301 304 308 311 312 312 312 311 310 310 310 311 312 312 311 311
215 212 205 197 191 184 182 182 180 179 177 174 172 169 173 187 198 212 227 237 244 248 248 249 252 257 263 269 275 279 280 282 282 281 281 280 278 276 276 277 279 282 286 291 298 303 305 303 296 288 280 274 266 255 250 254 258 255 253 253 256 259 264 270 277 284 292 299 302 304 307 311 312 312 311 310 309 308 308 309 311 311 309 309 309
206 204 208 207 201 193 187 186 185 184 183 184 185 184 189 196 202 210 214 216 219 224 229 239 255 272 284 290 292 292 293 293 293 295 295 293 290 285 279 276 276 278 280 283 288 297 303 304 299 290 282 276 271 262 253 253 257 257 255 257 259 261 265 271 278 287 296 301 305 308 310 311 311 309 308 307 306 307 308 309 310 310 308 307 307
196 189 187 186 188 196 204 204 195 188 186 187 187 190 195 200 205 209 211 215 222 231 246 266 280 288 293 294 292 292 294 295 296 298 299 299 300 298 292 282 276 275 276 278 282 287 294 299 302 297 287 281 279 276 268 259 256 255 255 256 258 261 267 275 284 292 299 304 306 308 308 307 305 303 303 303 304 306 307 308 309 309 307 306 307
223 224 226 235 246 248 246 239 220 200 192 191 193 198 204 207 212 216 222 233 244 256 269 278 283 286 288 288 288 290 294 298 298 297 298 299 300 301 300 295 286 280 278 279 282 285 288 294 301 305 305 301 293 281 267 257 252 251 253 256 261 267 276 284 292 298 301 303 304 303 302 301 300 300 300 301 303 305 305 305 306 305 304 305 306
239 239 244 248 247 245 243 240 233 224 220 220 221 223 226 230 235 242 249 257 263 269 277 282 284 288 290 293 297 299 302 305 307 305 305 305 304 304 304 302 299 292 287 285 286 288 291 295 300 305 308 307 295 276 262 255 253 254 257 263 270 279 287 292 295 296 296 297 297 297 297 297 297 298 299 300 301 301 301 301 302 302 303 304 305
237 230 236 245 245 243 244 243 241 242 245 246 244 244 247 250 254 260 265 270 274 275 279 283 286 290 294 297 300 302 304 307 310 312 312 311 310 311 311 309 306 299 293 290 290 292 296 299 300 299 297 295 287 275 265 260 259 260 264 271 280 287 291 293 292 291 291 292 293 294 294 295 296 297 298 299 299 299 300 301 302 303 303 303 303
248 241 244 249 250 251 253 254 253 251 253 255 254 255 258 259 261 267 271 274 279 283 284 285 287 290 293 295 296 297 299 303 306 310 312 312 311 312 315 318 315 303 294 291 291 292 294 295 295 292 288 284 279 273 267 264 264 267 273 281 286 289 289 289 288 288 290 292 293 295 295 296 297 298 298 299 299 300 301 301 302 303 302 300 299
253 252 249 247 246 249 254 256 257 255 254 257 258 259 261 263 265 270 273 277 285 292 291 289 288 290 292 293 293 292 293 297 304 309 311 310 308 310 314 319 320 310 294 285 285 288 289 290 289 288 285 282 279 277 275 275 276 279 283 286 288 288 288 289 290 292 294 295 296 297 298 299 299 299 300 300 301 302 302 303 304 303 300 298 295
250 251 249 244 243 246 249 251 254 256 256 258 261 263 264 267 269 272 274 279 287 292 292 290 289 290 290 290 290 290 290 294 300 306 307 304 302 304 311 318 320 314 295 275 272 276 279 279 280 282 284 284 283 282 284 285 286 287 287 288 290 292 293 294 295 295 296 297 298 299 300 301 301 302 303 304 305 305 306 306 305 303 300 296 293
255 251 248 244 244 245 247 249 252 255 256 258 261 264 265 266 267 269 273 279 285 289 290 290 290 290 288 285 283 283 286 288 293 298 300 297 293 296 306 314 315 308 291 275 268 268 271 273 277 280 282 282 282 284 287 288 289 289 290 291 293 294 295 295 296 296 297 299 300 301 302 304 305 306 308 309 309 308 308 307 305 302 299 297 294
258 255 251 249 248 248 247 248 250 252 254 256 259 261 262 263 265 269 273 277 280 284 285 284 284 283 282 279 277 277 279 282 286 291 292 290 287 288 298 307 304 289 278 274 272 274 277 279 280 281 281 280 281 283 284 285 286 288 291 292 293 294 295 297 298 300 302 303 304 305 306 308 309 310 311 310 310 309 309 308 305 303 301 298 296
253 252 248 247 249 250 248 247 247 247 248 250 252 253 256 261 265 269 272 273 275 277 277 277 277 277 277 277 277 276 276 278 281 283 282 282 282 283 290 297 292 276 268 269 273 279 284 286 286 284 282 282 283 283 285 287 289 291 293 295 297 299 301 303 304 306 306 307 308 309 311 312 311 311 311 310 310 310 310 308 306 305 303 301 298
244 244 243 243 245 245 245 244 244 244 245 247 249 252 254 258 261 263 264 266 268 271 272 273 274 275 276 276 274 274 273 274 275 276 276 276 276 277 283 288 282 270 266 270 274 279 284 287 288 287 286 288 289 290 291 293 294 297 299 301 304 306 307 309 310 311 312 312 312 313 314 313 312 312 312 311 310 311 311 309 307 307 307 305 302
245 244 244 245 244 242 242 243 245 246 248 250 252 254 255 255 256 256 258 261 264 267 269 270 271 272 272 272 270 268 268 269 271 273 275 275 271 270 275 278 274 269 269 272 277 281 284 285 286 288 290 292 293 294 296 298 301 304 306 307 309 311 313 314 315 315 314 314 314 314 314 314 313 313 313 312 312 312 311 310 309 310 310 309 307
252 251 250 251 252 250 248 249 251 253 255 256 258 260 261 261 261 263 264 266 268 269 268 268 269 268 267 266 264 262 265 270 274 274 272 268 264 265 268 267 263 264 268 274 278 281 283 286 288 291 293 294 296 298 301 304 306 308 310 312 315 318 319 319 318 318 317 317 317 317 318 317 317 317 316 316 316 316 315 315 316 316 316 315 314
254 255 255 257 258 256 255 255 256 258 260 262 264 264 265 266 267 269 270 270 270 271 270 269 268 265 262 260 259 260 264 269 270 266 262 257 257 262 263 258 256 261 269 275 278 279 282 286 288 291 293 296 299 303 305 308 311 314 317 321 324 325 325 325 324 324 323 322 323 324 325 325 324 324 323 322 322 322 322 323 323 322 320 318 316
252 251 255 258 258 258 260 261 261 262 264 264 265 265 266 267 269 270 271 269 269 269 269 269 266 263 261 259 257 259 264 263 255 248 247 249 252 255 252 248 253 265 272 273 274 276 280 285 287 291 295 299 303 308 312 316 321 324 327 330 332 332 331 330 330 329 329 329 329 331 331 330 328 327 326 325 324 323 324 324 323 320 319 316 313
246 247 253 256 256 258 259 259 261 262 263 263 264 265 266 267 268 269 270 270 269 269 269 268 266 263 261 258 256 257 259 254 245 239 238 241 244 241 236 238 250 262 265 266 269 273 277 283 288 293 299 305 311 317 322 327 332 333 334 335 336 336 336 335 335 335 335 334 334 335 334 330 327 325 325 325 324 323 323 322 321 319 317 315 312
242 247 250 251 251 252 253 255 258 259 261 262 263 264 265 266 266 268 269 270 271 270 268 266 264 261 258 254 250 247 244 243 240 235 231 231 230 226 225 232 242 247 251 257 263 268 275 283 292 301 308 315 321 327 334 339 340 339 337 336 335 336 338 340 341 340 339 338 338 337 334 331 328 326 326 326 325 324 322 322 322 320 318 317 315
242 245 248 250 251 253 255 257 259 260 262 263 263 263 265 265 266 268 270 271 272 272 270 268 264 259 252 243 234 230 231 235 236 229 222 218 217 216 220 228 230 231 240 251 258 266 278 291 301 310 317 324 333 341 346 348 345 341 339 336 334 334 337 340 343 343 344 345 344 341 336 332 329 327 326 327 327 326 324 323 322 321 319 317 315
237 240 250 256 259 261 264 265 265 266 265 265 265 265 266 266 267 269 269 270 270 270 268 265 258 246 233 224 222 225 228 229 225 215 208 204 204 208 214 217 216 222 235 245 255 270 286 299 310 321 330 340 350 356 357 356 354 351 346 343 340 338 337 337 341 346 349 351 349 344 339 333 328 326 326 328 329 328 326 325 323 321 319 317 315
240 248 261 270 273 274 274 273 271 271 269 267 267 267 266 266 268 268 267 267 265 261 258 253 239 223 214 214 217 220 219 212 203 196 191 190 193 200 204 203 204 213 227 236 250 271 288 306 321 337 350 360 7 9 8 5 4 1 356 351 347 343 340 338 340 346 350 351 349 346 342 336 331 329 328 327 328 328 328 327 324 322 319 317 314
256 268 279 286 288 285 281 279 276 274 272 270 268 266 266 267 267 263 259 257 249 238 232 228 214 203 201 202 199 195 191 185 179 178 178 179 180 179 179 184 189 198 210 220 238 267 296 319 341 1 13 17 18 17 13 10 7 4 1 358 353 347 341 337 339 346 350 350 349 348 345 341 336 332 328 326 326 327 327 327 325 322 320 317 314
271 289 296 297 294 290 286 285 282 280 278 273 268 264 263 260 253 244 239 233 219 206 209 211 202 198 200 192 176 169 170 168 167 169 170 169 167 167 166 166 170 188 205 214 232 274 301 335 11 25 28 26 20 15 9 7 6 4 3 2 359 354 347 342 344 349 352 352 352 351 349 345 340 335 331 328 327 327 328 328 328 326 324 321 319
288 302 302 297 296 294 292 294 295 291 283 271 261 256 250 236 221 213 210 207 205 207 207 201 193 193 190 174 161 159 163 163 162 164 163 161 164 166 162 154 165 196 206 213 243 279 303 5 31 34 31 24 15 6 2 2 4 4 3 1 1 0 358 354 353 353 353 353 354 352 350 347 343 338 334 332 330 330 331 332 332 331 328 325 321
300 303 298 294 297 298 296 311 319 312 293 265 240 228 217 205 198 200 203 205 207 204 192 180 172 167 161 154 152 156 158 157 158 161 160 159 162 163 157 152 175 201 209 223 255 283 321 22 34 32 25 14 4 358 357 359 1 2 1 359 358 358 359 356 353 353 353 353 353 352 351 349 346 341 339 336 334 334 333 334 334 333 329 326 322
293 293 283 267 256 253 279 326 345 346 328 266 199 187 187 183 182 184 183 179 174 168 161 156 152 148 147 147 150 151 151 151 154 156 154 152 153 152 152 160 189 219 228 238 264 295 338 19 28 23 11 359 354 354 355 356 357 358 359 359 358 358 357 355 353 353 354 352 351 351 351 350 348 346 343 340 337 335 334 334 335 333 330 329 326
265 256 248 255 259 249 282 335 24 46 60 91 129 141 146 148 147 146 145 146 147 146 144 144 145 147 149 151 152 151 152 154 153 151 149 149 148 151 177 199 237 259 252 252 271 297 332 11 18 8 353 345 346 350 353 355 356 356 357 358 359 359 358 357 356 356 355 353 351 350 350 350 350 349 347 343 340 337 337 336 336 335 333 332 330
217 211 326 3 28 54 56 62 73 79 84 93 104 114 121 127 130 132 134 136 138 138 139 142 147 150 153 155 156 157 159 159 159 161 161 160 172 272 242 231 260 273 264 264 280 296 330 1 1 349 339 337 341 347 352 353 354 355 356 358 360 360 359 359 359 358 356 353 351 351 351 351 352 352 350 347 343 340 339 339 339 339 337 335 335
201 240 9 53 89 93 87 87 90 94 97 99 102 107 113 118 123 127 131 134 137 139 142 146 150 154 158 159 161 166 173 179 186 188 186 201 261 271 240 235 256 267 269 283 298 304 316 334 337 334 332 332 335 344 349 351 352 354 356 358 359 360 359 360 360 359 356 353 351 351 352 353 354 353 351 350 347 343 341 341 343 344 342 339 340
176 75 91 108 113 120 120 109 103 105 108 108 108 110 113 118 124 130 135 141 146 150 153 155 157 159 162 164 170 183 192 192 189 189 201 240 266 253 232 235 257 285 305 312 306 299 303 318 326 326 324 325 332 341 347 349 351 354 356 357 358 358 359 359 0 0 358 354 352 352 352 354 355 354 352 352 351 347 342 342 346 349 348 345 344
101 92 89 88 94 111 124 122 117 119 124 125 124 126 127 131 137 141 144 147 151 155 160 166 172 176 179 181 183 180 173 170 179 199 234 265 264 240 228 246 294 318 319 310 297 293 306 323 326 322 320 324 334 343 346 349 354 357 357 357 357 357 358 358 360 1 360 356 353 352 353 354 355 355 353 352 352 350 345 344 347 351 353 352 350
98 91 75 72 85 99 106 106 104 105 105 109 124 136 137 133 128 128 128 126 123 126 139 157 173 181 184 182 177 169 166 174 200 233 261 274 259 231 231 289 320 320 312 303 299 311 330 332 326 321 322 331 342 345 347 353 358 359 359 358 358 357 357 358 359 0 1 358 355 354 354 354 356 356 355 353 352 351 348 346 349 352 356 358 357
103 89 72 71 79 88 93 93 89 83 75 67 66 83 100 100 94 92 93 91 87 86 93 109 131 151 165 171 173 176 187 209 231 248 261 265 246 227 245 299 315 315 311 311 322 341 342 333 325 323 330 340 345 346 349 357 1 1 0 1 360 358 357 358 359 360 0 360 357 356 355 356 358 359 357 356 354 353 351 350 350 353 356 1 3
109 87 73 73 76 79 82 84 81 79 79 76 67 65 72 76 76 77 78 80 83 90 98 112 133 153 171 182 191 203 218 232 244 253 257 254 245 242 259 296 312 316 315 322 345 352 340 330 325 328 335 342 344 345 351 359 1 360 1 2 2 360 357 357 357 358 359 0 360 358 356 357 360 1 360 359 359 357 354 353 353 355 360 6 10
112 95 81 76 73 71 72 73 73 75 76 72 68 67 66 64 66 75 79 80 88 102 121 147 169 187 201 210 220 230 238 244 254 261 262 258 251 247 260 294 312 317 323 342 356 347 331 323 325 330 335 340 342 344 350 356 358 358 359 1 1 1 359 357 357 357 359 0 1 360 357 358 0 2 2 3 3 2 360 358 359 2 7 15 19
114 105 90 81 74 70 66 64 65 70 73 72 69 69 69 69 73 83 89 99 120 152 180 198 208 219 228 234 241 247 250 253 256 259 258 251 244 244 263 302 319 331 353 356 345 332 323 322 326 329 332 336 339 341 347 352 354 355 356 357 358 360 0 359 358 358 359 0 2 2 360 359 0 3 5 6 7 8 6 5 5 9 15 22 28
Height
1515 1516 1518 1520 1522 1525 1527 1529 1530 1532 1533 1534 1536 1538 1540 1541 1543 1544 1545 1546 1547 1548 1549 1550 1550 1551 1552 1552 1553 1553 1554 1554 1554 1555 1554 1554 1554 1554 1553 1553 1553 1552 1552 1552 1552 1552 1551 1550 1550 1550 1550 1550 1550 1550 1550 1550 1551 1551 1551 1551 1552 1552 1553 1554 1554 1555 1555 1555 1555 1555 1555 1554 1554 1554 1554 1554 1553 1553 1553 1552 1552 1552 1551 1550 1549
1513 1515 1517 1518 1521 1523 1526 1528 1529 1530 1532 1533 1536 1537 1539 1541 1542 1543 1544 1545 1546 1547 1548 1549 1550 1551 1551 1552 1553 1553 1553 1554 1554 1554 1555 1555 1555 1554 1554 1554 1553 1553 1553 1553 1553 1552 1552 1551 1551 1550 1550 1550 1550 1550 1551 1551 1551 1551 1551 1552 1552 1552 1553 1553 1554 1555 1555 1555 1555 1554 1554 1554 1553 1553 1553 1553 1552 1552 1552 1552 1551 1551 1550 1549 1548
1512 1514 1516 1518 1520 1522 1524 1526 1527 1529 1531 1532 1534 1536 1538 1540 1541 1542 1543 1544 1546 1546 1547 1548 1549 1550 1551 1552 1552 1552 1552 1553 1554 1554 1554 1554 1554 1554 1554 1554 1553 1553 1553 1553 1553 1553 1553 1552 1551 1551 1550 1550 1550 1550 1551 1551 1551 1551 1551 1552 1552 1552 1552 1552 1553 1553 1554 1554 1554 1554 1553 1553 1552 1552 1551 1551 1551 1551 1550 1550 1550 1549 1549 1548 1547
1511 1513 1515 1517 1519 1521 1523 1525 1526 1528 1530 1531 1533 1535 1537 1538 1540 1541 1542 1543 1544 1545 1547 1548 1548 1549 1550 1550 1551 1551 1551 1552 1553 1553 1554 1553 1553 1553 1553 1553 1552 1552 1553 1553 1553 1553 1553 1552 1552 1551 1550 1550 1550 1550 1550 1550 1551 1551 1551 1551 1551 1552 1552 1552 1552 1552 1552 1552 1552 1552 1552 1551 1551 1550 1550 1550 1550 1549 1549 1548 1548 1548 1547 1547 1546
1511 1512 1515 1516 1518 1520 1521 1523 1525 1527 1528 1530 1532 1534 1536 1537 1538 1540 1541 1542 1543 1544 1546 1547 1547 1548 1548 1548 1549 1549 1550 1550 1551 1552 1552 1552 1552 1551 1551 1552 1552 1552 1552 1552 1552 1552 1552 1552 1552 1551 1551 1550 1550 1549 1550 1550 1550 1550 1550 1550 1551 1551 1551 1551 1551 1551 1551 1551 1551 1551 1551 1550 1549 1549 1549 1548 1548 1548 1547 1547 1546 1546 1545 1545 1544
1510 1512 1514 1516 1517 1519 1520 1522 1524 1526 1527 1528 1530 1533 1534 1535 1537 1538 1539 1540 1541 1543 1544 1545 1546 1547 1547 1547 1548 1548 1548 1549 1549 1549 1550 1550 1550 1550 1550 1550 1551 1551 1551 1551 1551 1551 1551 1550 1550 1550 1550 1550 1549 1549 1549 1549 1549 1550 1550 1550 1550 1550 1550 1550 1550 1550 1550 1550 1550 1549 1549 1549 1548 1548 1547 1546 1545 1545 1545 1545 1544 1544 1543 1543 1542
1510 1512 1514 1515 1516 1518 1519 1521 1523 1525 1525 1527 1529 1531 1533 1534 1535 1537 1538 1538 1539 1541 1542 1542 1544 1545 1545 1545 1546 1546 1546 1546 1546 1547 1548 1548 1548 1548 1548 1548 1549 1549 1550 1550 1550 1550 1550 1549 1549 1549 1549 1549 1549 1549 1549 1549 1549 1549 1549 1549 1549 1549 1549 1549 1549 1549 1548 1548 1548 1548 1547 1547 1546 1546 1545 1544 1544 1543 1542 1541 1541 1541 1541 1540 1539
1510 1512 1514 1515 1516 1518 1519 1521 1523 1524 1524 1526 1529 1531 1532 1533 1534 1535 1536 1536 1537 1538 1539 1540 1541 1543 1543 1543 1543 1544 1543 1544 1544 1544 1545 1546 1546 1546 1545 1545 1546 1547 1547 1548 1548 1548 1548 1548 1547 1547 1547 1547 1548 1548 1548 1548 1548 1547 1548 1548 1548 1548 1547 1547 1547 1547 1547 1547 1547 1546 1546 1545 1545 1544 1543 1543 1542 1541 1540 1539 1538 1537 1537 1537 1536
1510 1511 1513 1515 1516 1517 1519 1520 1522 1523 1524 1526 1529 1530 1531 1532 1532 1532 1533 1534 1534 1535 1536 1537 1538 1540 1540 1540 1541 1541 1541 1541 1542 1542 1542 1543 1543 1542 1542 1543 1543 1544 1545 1545 1545 1545 1545 1545 1545 1545 1545 1545 1545 1546 1546 1546 1546 1546 1546 1546 1546 1546 1546 1545 1545 1545 1545 1545 1545 1544 1544 1544 1543 1542 1542 1540 1539 1538 1538 1537 1536 1535 1534 1534 1534
1510 1512 1513 1515 1516 1517 1519 1520 1521 1522 1523 1525 1527 1528 1529 1530 1530 1530 1531 1531 1532 1533 1534 1535 1536 1537 1537 1538 1539 1539 1539 1540 1540 1540 1540 1540 1540 1539 1539 1540 1541 1542 1542 1542 1542 1542 1542 1542 1542 1542 1542 1542 1542 1543 1543 1544 1544 1544 1544 1544 1544 1544 1544 1544 1544 1543 1543 1543 1542 1542 1542 1541 1541 1540 1539 1538 1537 1536 1535 1534 1534 1533 1531 1530 1530
1511 1512 1513 1515 1516 1517 1518 1519 1520 1521 1522 1523 1525 1526 1527 1528 1528 1529 1529 1530 1531 1532 1533 1534 1534 1535 1536 1536 1537 1538 1538 1538 1538 1538 1538 1538 1538 1538 1538 1539 1539 1539 1540 1539 1539 1539 1539 1539 1539 1539 1539 1539 1539 1540 1540 1541 1541 1542 1542 1542 1541 1542 1542 1542 1542 1542 1542 1541 1540 1540 1539 1539 1538 1537 1537 1536 1535 1535 1534 1532 1531 1530 1528 1527 1526
1512 1513 1514 1515 1516 1517 1518 1519 1520 1521 1522 1523 1524 1525 1526 1527 1527 1528 1529 1530 1531 1532 1532 1533 1533 1534 1535 1535 1536 1536 1536 1536 1536 1537 1537 1537 1537 1537 1537 1537 1538 1538 1538 1537 1537 1537 1536 1536 1536 1536 1536 1536 1536 1536 1537 1538 1538 1539 1539 1538 1538 1539 1539 1540 1540 1540 1539 1539 1538 1538 1537 1537 1536 1535 1535 1534 1533 1532 1531 1530 1529 1527 1526 1525 1522
1514 1515 1516 1516 1517 1518 1519 1520 1520 1521 1522 1522 1523 1524 1525 1525 1526 1527 1528 1529 1530 1531 1532 1532 1533 1534 1534 1535 1535 1535 1535 1536 1536 1536 1536 1536 1536 1536 1536 1536 1536 1536 1536 1536 1535 1535 1534 1534 1534 1534 1534 1533 1533 1533 1534 1534 1535 1536 1536 1536 1536 1536 1537 1537 1537 1537 1537 1537 1536 1536 1535 1535 1534 1533 1532 1531 1531 1530 1528 1527 1527 1525 1523 1522 1520
1515 1515 1516 1517 1518 1518 1519 1519 1520 1520 1521 1521 1522 1523 1523 1524 1525 1526 1527 1528 1529 1530 1531 1532 1533 1533 1534 1534 1534 1534 1534 1534 1534 1534 1535 1535 1535 1535 1535 1535 1535 1534 1534 1533 1533 1533 1532 1532 1532 1532 1531 1531 1531 1531 1531 1531 1532 1533 1533 1534 1534 1534 1534 1535 1535 1535 1534 1534 1534 1533 1532 1532 1531 1530 1529 1528 1527 1526 1525 1524 1523 1521 1519 1518 1516
1515 1516 1516 1517 1517 1518 1519 1519 1520 1520 1521 1521 1522 1522 1523 1524 1525 1526 1527 1528 1529 1530 1531 1531 1532 1533 1533 1533 1533 1533 1533 1533 1533 1533 1533 1533 1533 1533 1533 1533 1533 1532 1532 1531 1531 1531 1530 1530 1530 1529 1529 1529 1529 1529 1529 1529 1530 1531 1531 1532 1532 1532 1532 1532 1532 1532 1532 1532 1531 1530 1529 1528 1527 1527 1526 1525 1524 1523 1521 1520 1519 1517 1515 1513 1513
1516 1516 1516 1517 1518 1518 1519 1520 1520 1521 1521 1522 1522 1523 1524 1525 1526 1527 1528 1528 1529 1530 1530 1531 1531 1532 1532 1532 1532 1532 1532 1532 1532 1532 1532 1531 1531 1531 1531 1531 1530 1530 1530 1530 1529 1529 1529 1528 1528 1527 1527 1527 1527 1527 1527 1527 1528 1529 1530 1530 1530 1530 1530 1530 1530 1530 1530 1529 1528 1527 1526 1525 1524 1524 1523 1521 1520 1519 1517 1516 1515 1513 1510 1508 1508
1517 1517 1517 1518 1518 1519 1520 1520 1521 1521 1521 1522 1523 1523 1524 1525 1525 1526 1527 1528 1528 1529 1529 1530 1530 1530 1531 1531 1531 1531 1531 1531 1531 1530 1530 1530 1529 1529 1529 1529 1528 1528 1528 1528 1528 1527 1527 1527 1526 1526 1526 1525 1525 1525 1526 1526 1527 1527 1528 1528 1528 1528 1528 1528 1528 1527 1527 1526 1525 1524 1523 1522 1522 1521 1520 1518 1517 1515 1513 1512 1511 1509 1507 1504 1503
1517 1518 1518 1519 1519 1520 1521 1521 1521 1521 1521 1522 1522 1523 1524 1524 1525 1525 1526 1527 1527 1528 1528 1529 1529 1529 1529 1530 1530 1530 1530 1529 1529 1529 1528 1528 1528 1527 1527 1527 1527 1526 1526 1526 1526 1526 1525 1525 1525 1524 1524 1524 1524 1525 1525 1525 1526 1526 1526 1526 1526 1526 1526 1526 1525 1525 1524 1523 1522 1521 1521 1520 1519 1518 1517 1515 1514 1512 1510 1509 1508 1506 1504 1501 1499
1517 1518 1519 1519 1520 1520 1520 1521 1521 1521 1521 1521 1522 1522 1523 1523 1523 1524 1525 1525 1526 1526 1527 1527 1527 1528 1528 1528 1528 1528 1528 1528 1527 1527 1527 1526 1526 1526 1525 1525 1525 1525 1524 1524 1524 1524 1524 1523 1523 1523 1523 1523 1524 1524 1524 1524 1524 1524 1524 1525 1524 1524 1524 1523 1523 1522 1521 1520 1520 1519 1518 1517 1516 1515 1514 1512 1511 1510 1508 1506 1505 1503 1501 1499 1497
1516 1517 1517 1518 1518 1519 1519 1519 1519 1520 1520 1520 1520 1521 1521 1521 1522 1522 1523 1524 1524 1525 1525 1525 1526 1526 1526 1526 1526 1526 1526 1526 1525 1525 1525 1525 1524 1524 1524 1523 1523 1523 1523 1523 1522 1522 1522 1522 1522 1522 1523 1523 1523 1523 1523 1523 1523 1523 1523 1523 1523 1522 1521 1521 1520 1519 1518 1517 1516 1515 1515 1514 1513 1511 1510 1509 1508 1507 1505 1503 1501 1500 1497 1495 1494
1515 1515 1516 1516 1516 1516 1517 1517 1518 1518 1519 1519 1519 1519 1520 1520 1520 1521 1522 1522 1523 1523 1523 1523 1524 1524 1524 1524 1524 1524 1524 1524 1524 1524 1523 1523 1523 1522 1522 1522 1521 1521 1521 1521 1521 1521 1521 1521 1521 1521 1521 1522 1521 1521 1521 1521 1521 1521 1521 1520 1520 1519 1519 1518 1517 1516 1514 1513 1513 1512 1511 1510 1509 1508 1506 1505 1504 1502 1501 1500 1498 1496 1494 1492 1491
1512 1513 1513 1514 1514 1514 1514 1515 1515 1516 1517 1517 1517 1517 1518 1519 1519 1520 1520 1520 1521 1521 1521 1521 1521 1522 1522 1522 1522 1522 1522 1522 1522 1522 1522 1521 1521 1521 1520 1520 1520 1520 1520 1520 1520 1520 1520 1520 1520 1520 1520 1520 1520 1520 1520 1519 1519 1519 1518 1518 1517 1516 1515 1514 1513 1512 1511 1509 1508 1507 1507 1506 1504 1503 1502 1501 1500 1498 1497 1496 1495 1493 1491 1490 1488
1510 1510 1510 1511 1511 1511 1512 1512 1513 1513 1514 1514 1515 1515 1516 1517 1517 1518 1518 1518 1518 1519 1519 1519 1519 1519 1520 1520 1520 1520 1520 1520 1520 1520 1520 1519 1519 1519 1519 1518 1518 1518 1518 1518 1519 1519 1519 1519 1519 1519 1519 1518 1518 1518 1517 1517 1517 1516 1515 1515 1514 1513 1512 1510 1509 1508 1507 1506 1505 1504 1503 1502 1500 1499 1498 1496 1495 1494 1493 1491 1490 1489 1487 1486 1484
1507 1507 1507 1508 1508 1508 1509 1509 1510 1511 1511 1512 1512 1513 1513 1514 1515 1515 1515 1516 1516 1516 1516 1517 1517 1517 1517 1518 1518 1518 1517 1517 1517 1517 1517 1517 1517 1517 1517 1517 1517 1517 1517 1517 1517 1517 1517 1517 1517 1517 1517 1516 1516 1516 1515 1515 1514 1513 1512 1511 1510 1509 1508 1507 1506 1505 1504 1503 1501 1500 1499 1498 1496 1494 1493 1492 1490 1489 1488 1487 1485 1484 1482 1480 1479
1504 1504 1505 1505 1505 1506 1506 1506 1507 1508 1508 1509 1509 1510 1510 1511 1512 1512 1512 1513 1513 1514 1514 1514 1514 1515 1515 1515 1515 1515 1515 1514 1514 1514 1515 1515 1515 1515 1515 1515 1515 1515 1515 1515 1515 1515 1515 1515 1515 1515 1515 1514 1514 1513 1513 1512 1512 1511 1510 1509 1508 1507 1506 1505 1504 1502 1501 1499 1498 1496 1495 1494 1492 1490 1489 1487 1486 1484 1483 1481 1479 1478 1477 1475 1474
1501 1501 1501 1502 1502 1502 1503 1503 1504 1504 1505 1506 1506 1507 1507 1508 1508 1509 1509 1510 1510 1511 1511 1511 1512 1512 1512 1512 1512 1512 1512 1511 1511 1511 1512 1512 1513 1513 1513 1513 1513 1514 1514 1514 1514 1514 1514 1513 1513 1513 1512 1512 1512 1511 1511 1510 1509 1509 1508 1507 1506 1505 1503 1502 1501 1499 1497 1496 1494 1492 1491 1490 1488 1487 1485 1483 1482 1480 1479 1476 1474 1473 1472 1471 1468
1497 1498 1498 1498 1499 1499 1500 1500 1501 1502 1502 1503 1503 1504 1504 1505 1505 1506 1506 1507 1507 1507 1508 1508 1508 1508 1509 1509 1509 1509 1509 1509 1509 1509 1509 1509 1510 1511 1511 1511 1511 1512 1512 1512 1512 1512 1512 1512 1511 1511 1511 1510 1510 1509 1509 1508 1507 1507 1506 1505 1504 1502 1501 1499 1497 1496 1494 1492 1490 1489 1487 1486 1484 1483 1481 1479 1478 1477 1475 1473 1470 1469 1468 1466 1464
1494 1495 1495 1495 1496 1496 1497 1497 1498 1499 1499 1499 1500 1500 1501 1501 1502 1502 1503 1503 1503 1504 1504 1504 1505 1505 1505 1505 1506 1506 1506 1506 1506 1506 1506 1507 1508 1508 1509 1509 1509 1510 1510 1510 1510 1510 1510 1510 1509 1509 1509 1508 1508 1507 1507 1506 1506 1505 1504 1503 1501 1500 1498 1497 1495 1493 1491 1490 1488 1486 1484 1483 1481 1480 1478 1476 1475 1474 1472 1470 1467 1465 1464 1462 1460
1491 1492 1492 1492 1493 1493 1494 1494 1495 1496 1496 1496 1496 1497 1497 1497 1498 1498 1499 1499 1499 1500 1500 1500 1501 1501 1502 1502 1502 1502 1503 1503 1504 1504 1504 1505 1505 1506 1507 1507 1507 1507 1508 1508 1508 1508 1508 1508 1508 1507 1507 1507 1506 1506 1505 1505 1504 1503 1502 1501 1499 1498 1496 1494 1493 1491 1490 1488 1486 1484 1482 1480 1478 1477 1475 1473 1471 1470 1468 1466 1464 1462 1461 1459 1457
1488 1488 1489 1489 1489 1490 1490 1491 1491 1492 1492 1492 1493 1493 1493 1493 1493 1494 1495 1495 1495 1495 1495 1496 1497 1497 1498 1498 1499 1499 1499 1500 1501 1501 1501 1502 1503 1504 1504 1505 1505 1505 1506 1506 1506 1506 1506 1507 1506 1506 1506 1505 1505 1505 1504 1503 1502 1501 1500 1499 1497 1496 1494 1492 1490 1489 1487 1485 1484 1482 1479 1477 1475 1473 1471 1469 1468 1467 1465 1463 1461 1460 1458 1457 1455
1483 1484 1485 1486 1486 1487 1487 1488 1488 1488 1488 1488 1489 1489 1489 1489 1489 1490 1490 1491 1491 1491 1491 1492 1492 1493 1494 1494 1495 1495 1496 1497 1498 1498 1499 1500 1501 1501 1502 1503 1503 1504 1504 1504 1505 1505 1505 1505 1505 1505 1505 1505 1504 1503 1502 1501 1500 1499 1498 1497 1495 1494 1492 1491 1489 1487 1485 1483 1481 1479 1477 1475 1473 1471 1470 1468 1466 1464 1462 1460 1459 1457 1456 1454 1452
1479 1480 1482 1482 1483 1483 1484 1484 1484 1484 1484 1484 1484 1484 1485 1485 1485 1485 1486 1486 1487 1487 1487 1487 1488 1488 1489 1490 1491 1492 1493 1494 1494 1495 1496 1497 1498 1499 1500 1501 1501 1502 1503 1503 1504 1504 1504 1504 1504 1504 1504 1503 1503 1502 1501 1500 1499 1498 1496 1495 1494 1493 1491 1489 1487 1485 1483 1482 1480 1478 1476 1474 1472 1470 1468 1466 1464 1461 1459 1458 1457 1455 1453 1452 1450
1476 1477 1478 1479 1479 1480 1480 1480 1480 1480 1480 1480 1480 1480 1481 1480 1481 1481 1481 1481 1481 1482 1482 1482 1483 1484 1484 1485 1487 1488 1489 1490 1491 1492 1494 1495 1496 1498 1499 1499 1500 1501 1502 1502 1503 1503 1503 1503 1503 1503 1503 1502 1502 1501 1500 1499 1497 1496 1495 1494 1492 1491 1490 1488 1486 1484 1482 1480 1478 1476 1474 1472 1470 1468 1466 1464 1462 1459 1457 1456 1454 1452 1451 1449 1447
1473 1474 1475 1475 1476 1476 1476 1476 1476 1476 1476 1476 1476 1476 1476 1476 1476 1476 1476 1476 1476 1476 1476 1477 1478 1479 1480 1481 1483 1484 1485 1487 1488 1490 1491 1493 1495 1496 1497 1499 1499 1500 1501 1501 1502 1502 1502 1502 1502 1502 1502 1501 1500 1500 1499 1497 1496 1495 1494 1493 1491 1490 1489 1487 1485 1483 1481 1479 1476 1474 1472 1470 1468 1466 1464 1461 1460 1457 1455 1454 1452 1450 1448 1446 1445
1470 1471 1472 1472 1473 1473 1473 1473 1472 1472 1472 1472 1472 1472 1471 1471 1471 1471 1471 1471 1471 1471 1471 1472 1473 1474 1476 1477 1479 1481 1483 1484 1486 1488 1489 1491 1493 1495 1496 1498 1499 1499 1500 1501 1501 1501 1501 1501 1501 1501 1501 1500 1499 1499 1498 1497 1495 1494 1493 1491 1490 1489 1487 1486 1484 1482 1479 1477 1475 1472 1470 1468 1467 1465 1462 1460 1457 1455 1453 1452 1450 1448 1446 1444 1442
1468 1468 1469 1469 1470 1469 1469 1469 1468 1468 1468 1467 1467 1467 1466 1466 1466 1467 1467 1467 1467 1467 1467 1468 1469 1471 1473 1475 1477 1479 1481 1482 1484 1486 1488 1490 1492 1494 1496 1497 1498 1499 1499 1500 1500 1501 1501 1500 1500 1500 1500 1499 1498 1498 1497 1496 1495 1494 1493 1491 1489 1488 1486 1484 1482 1480 1478 1476 1474 1471 1469 1467 1465 1463 1460 1458 1456 1454 1452 1450 1448 1446 1444 1442 1440
1466 1466 1467 1467 1466 1466 1465 1465 1464 1464 1463 1463 1463 1462 1462 1462 1462 1462 1463 1463 1463 1464 1465 1466 1467 1469 1471 1473 1475 1477 1479 1481 1483 1486 1488 1490 1492 1494 1496 1497 1497 1498 1498 1499 1500 1500 1500 1500 1499 1499 1499 1498 1498 1497 1497 1496 1495 1494 1492 1491 1489 1487 1485 1483 1481 1479 1477 1475 1472 1470 1467 1465 1463 1461 1459 1456 1454 1452 1450 1448 1446 1444 1442 1440 1438
1464 1464 1465 1464 1463 1463 1462 1461 1460 1460 1459 1459 1458 1458 1457 1458 1459 1459 1460 1460 1461 1463 1464 1465 1466 1468 1470 1472 1473 1476 1478 1480 1482 1486 1488 1490 1492 1494 1495 1496 1496 1497 1498 1498 1499 1499 1499 1499 1499 1498 1498 1498 1498 1497 1497 1496 1495 1493 1492 1490 1488 1486 1484 1482 1480 1478 1476 1474 1471 1468 1466 1463 1461 1459 1457 1454 1452 1450 1448 1446 1444 1441 1439 1437 1435
1463 1463 1462 1462 1461 1460 1459 1458 1458 1456 1455 1454 1454 1453 1454 1455 1456 1457 1458 1459 1460 1462 1463 1465 1466 1468 1469 1471 1473 1475 1478 1481 1483 1486 1488 1490 1492 1494 1495 1495 1496 1496 1497 1498 1498 1498 1498 1498 1498 1498 1498 1497 1497 1497 1497 1496 1495 1493 1491 1489 1487 1485 1483 1481 1479 1477 1475 1472 1470 1467 1464 1462 1460 1458 1456 1453 1451 1448 1446 1443 1441 1439 1436 1434 1433
1461 1461 1461 1460 1460 1459 1458 1457 1456 1454 1453 1451 1451 1451 1452 1453 1454 1456 1457 1458 1459 1461 1462 1464 1466 1468 1470 1472 1475 1477 1480 1482 1485 1487 1489 1491 1492 1494 1494 1495 1496 1496 1496 1497 1497 1498 1498 1497 1497 1498 1497 1497 1497 1497 1496 1495 1494 1492 1491 1489 1487 1484 1482 1480 1478 1476 1473 1471 1469 1466 1463 1461 1458 1456 1453 1451 1449 1446 1444 1442 1439 1437 1435 1433 1431
1460 1460 1460 1460 1459 1459 1458 1457 1456 1453 1451 1450 1450 1450 1451 1452 1453 1454 1456 1458 1460 1462 1464 1466 1468 1470 1472 1475 1477 1480 1482 1484 1486 1488 1490 1491 1492 1493 1494 1495 1495 1495 1496 1496 1497 1497 1497 1497 1497 1497 1497 1497 1497 1496 1495 1494 1493 1492 1490 1488 1486 1484 1482 1479 1477 1474 1472 1470 1468 1465 1462 1459 1457 1454 1451 1449 1447 1445 1442 1440 1438 1435 1433 1431 1429
1460 1460 1460 1460 1459 1459 1459 1458 1456 1454 1452 1451 1451 1451 1452 1453 1454 1455 1457 1460 1462 1464 1466 1468 1470 1472 1475 1477 1480 1482 1484 1485 1487 1489 1490 1491 1492 1493 1494 1494 1494 1495 1495 1496 1496 1496 1496 1496 1497 1497 1497 1497 1497 1496 1495 1494 1492 1491 1489 1487 1485 1483 1480 1478 1476 1473 1471 1469 1466 1464 1461 1458 1455 1453 1450 1448 1445 1443 1441 1439 1436 1434 1432 1430 1428
1460 1460 1460 1460 1460 1459 1459 1458 1457 1456 1455 1454 1454 1454 1455 1457 1458 1459 1461 1463 1465 1467 1469 1470 1473 1475 1477 1479 1481 1483 1485 1486 1488 1489 1490 1491 1492 1493 1493 1494 1494 1494 1495 1495 1495 1496 1496 1496 1496 1497 1497 1496 1496 1495 1494 1493 1491 1490 1488 1486 1484 1482 1480 1477 1475 1472 1470 1467 1465 1462 1459 1456 1453 1451 1449 1446 1444 1442 1440 1437 1435 1433 1431 1428 1426
1460 1461 1461 1461 1460 1460 1460 1460 1459 1459 1458 1458 1458 1459 1460 1461 1462 1464 1465 1467 1468 1470 1471 1473 1475 1477 1479 1480 1482 1484 1485 1487 1488 1489 1490 1491 1492 1492 1493 1493 1493 1494 1494 1494 1494 1495 1495 1496 1496 1496 1496 1496 1495 1494 1493 1492 1490 1489 1487 1485 1483 1481 1479 1477 1474 1472 1469 1466 1464 1461 1458 1455 1452 1450 1448 1445 1443 1440 1438 1437 1434 1432 1430 1428 1426
1461 1461 1461 1461 1461 1461 1461 1461 1461 1461 1461 1461 1461 1462 1463 1464 1465 1466 1468 1469 1471 1472 1474 1476 1477 1479 1480 1482 1483 1484 1486 1487 1488 1489 1490 1491 1492 1492 1492 1493 1493 1493 1493 1493 1494 1495 1495 1495 1496 1496 1495 1495 1494 1494 1493 1491 1490 1488 1486 1484 1482 1480 1478 1476 1474 1472 1469 1466 1463 1460 1457 1454 1452 1449 1447 1444 1442 1440 1438 1436 1434 1432 1429 1427 1425
1462 1462 1462 1462 1461 1462 1462 1462 1463 1463 1463 1463 1464 1464 1465 1466 1468 1469 1470 1471 1473 1474 1475 1477 1478 1480 1481 1482 1483 1485 1486 1487 1488 1489 1490 1491 1491 1491 1492 1492 1492 1492 1492 1493 1494 1494 1494 1495 1495 1495 1495 1494 1494 1493 1492 1491 1489 1488 1486 1484 1482 1480 1478 1476 1474 1472 1469 1466 1463 1460 1457 1454 1452 1449 1446 1444 1442 1439 1437 1436 1434 1431 1429 1427 1425
1463 1463 1463 1463 1463 1463 1464 1464 1465 1465 1465 1465 1466 1466 1467 1468 1469 1470 1471 1472 1474 1475 1476 1477 1478 1480 1481 1482 1484 1485 1486 1487 1489 1489 1490 1490 1490 1491 1491 1491 1492 1492 1492 1493 1493 1493 1494 1494 1494 1494 1494 1493 1493 1492 1491 1490 1489 1487 1485 1484 1482 1480 1478 1476 1474 1471 1469 1467 1464 1461 1458 1454 1451 1449 1446 1444 1442 1439 1437 1435 1434 1432 1430 1427 1426
1465 1465 1465 1465 1465 1465 1466 1466 1467 1467 1467 1467 1468 1468 1469 1470 1471 1471 1472 1474 1474 1475 1477 1478 1479 1480 1482 1483 1484 1485 1487 1488 1488 1489 1489 1489 1490 1490 1490 1491 1491 1492 1492 1492 1493 1493 1493 1493 1493 1493 1493 1492 1492 1491 1491 1489 1488 1487 1485 1483 1482 1479 1478 1476 1474 1472 1469 1467 1464 1461 1459 1455 1452 1449 1446 1444 1442 1439 1437 1435 1433 1432 1430 1428 1426
1466 1467 1467 1467 1467 1467 1467 1468 1468 1469 1469 1469 1470 1470 1471 1472 1472 1473 1474 1475 1476 1477 1478 1479 1480 1481 1483 1484 1485 1486 1487 1487 1488 1488 1488 1489 1489 1490 1490 1491 1491 1492 1492 1492 1492 1493 1493 1493 1492 1492 1492 1492 1491 1491 1490 1489 1488 1486 1485 1483 1481 1480 1478 1476 1474 1472 1470 1467 1465 1462 1459 1456 1453 1450 1447 1444 1442 1440 1438 1436 1434 1432 1430 1428 1426
1467 1468 1468 1468 1469 1469 1469 1469 1470 1470 1470 1471 1471 1472 1472 1473 1474 1475 1475 1476 1477 1478 1479 1480 1481 1482 1483 1484 1485 1486 1486 1487 1487 1487 1488 1488 1489 1489 1490 1491 1491 1491 1492 1492 1492 1492 1492 1492 1492 1492 1491 1491 1491 1490 1489 1488 1487 1486 1485 1483 1481 1480 1478 1476 1474 1472 1470 1467 1465 1462 1460 1457 1454 1451 1448 1445 1442 1440 1438 1436 1434 1432 1431 1429 1427
1468 1469 1469 1470 1470 1470 1470 1470 1471 1471 1471 1472 1472 1473 1474 1474 1475 1476 1476 1477 1478 1479 1480 1481 1482 1483 1483 1484 1484 1485 1485 1485 1486 1486 1487 1488 1488 1489 1490 1490 1491 1491 1491 1491 1492 1492 1492 1492 1491 1491 1491 1491 1490 1489 1489 1488 1487 1486 1484 1483 1481 1480 1478 1476 1474 1472 1470 1467 1465 1462 1460 1457 1454 1451 1448 1446 1443 1441 1439 1437 1435 1433 1431 1430 1428